Location: Dos Palmas
(32.4468°N, 116.8732°W)
Time: 13:36:24
(UTC+00:00)

Hubble Space Telescope - Visible Passes

Search period start: 20 July 2024 00:00
Search period end: 30 July 2024 00:00
Orbit: 509 x 513 km, 28.5° (Epoch: 19 July)

Date Brightness Start Highest point End Pass type
(mag) Time Alt. Az. Time Alt. Az. Time Alt. Az.
20 Jul 1.4 03:24:15 10° WSW 03:27:57 38° S 03:31:36 10° ESE visible
20 Jul 3.1 05:05:27 10° WSW 05:06:22 14° SW 05:06:22 14° SW visible
21 Jul 2.9 04:46:13 10° WSW 04:47:49 15° SW 04:47:49 15° SW visible
22 Jul 2.8 04:27:02 10° SW 04:29:03 14° SSW 04:29:18 13° SSW visible
23 Jul 3.0 04:07:58 10° SW 04:09:29 12° SSW 04:10:46 11° S visible
24 Jul 3.2 03:49:19 10° SW 03:49:55 10° SSW 03:50:31 10° SSW visible
